Year,Month,Day,Hour,Minute,Value (Times are PST for temperature in C)
2014,09,15,08,54,17.70
2014,09,15,08,55,17.70
2014,09,15,08,56,17.80
2014,09,15,08,57,17.80
2014,09,15,08,58,17.90
2014,09,15,08,59,18.00
2014,09,15,09,00,18.00
2014,09,15,09,01,18.10
2014,09,15,09,02,18.20
2014,09,15,09,03,18.20
2014,09,15,09,04,18.30
2014,09,15,09,05,18.30
2014,09,15,09,06,18.40
2014,09,15,09,07,18.50
2014,09,15,09,08,18.50
2014,09,15,09,09,18.60
2014,09,15,09,10,18.70
2014,09,15,09,11,18.80
2014,09,15,09,12,18.80
2014,09,15,09,13,18.90
2014,09,15,09,14,19.00
2014,09,15,09,15,19.10
2014,09,15,09,16,19.10
2014,09,15,09,17,19.20
2014,09,15,09,18,19.30
2014,09,15,09,19,19.30
2014,09,15,09,20,19.40
2014,09,15,09,21,19.50
2014,09,15,09,22,19.50
2014,09,15,09,23,19.60
2014,09,15,09,24,19.60
2014,09,15,09,25,19.60
2014,09,15,09,26,19.70
2014,09,15,09,27,19.70
2014,09,15,09,28,19.80
2014,09,15,09,29,19.80
2014,09,15,09,30,19.80
2014,09,15,09,31,19.80
2014,09,15,09,32,19.80
2014,09,15,09,33,19.90
2014,09,15,09,34,20.00
2014,09,15,09,35,20.00
2014,09,15,09,36,20.10
2014,09,15,09,37,20.20
2014,09,15,09,38,20.20
2014,09,15,09,39,20.20
2014,09,15,09,40,20.20
2014,09,15,09,41,20.30
2014,09,15,09,42,20.40
2014,09,15,09,43,20.40
2014,09,15,09,44,20.40
2014,09,15,09,45,20.50
2014,09,15,09,46,20.50
2014,09,15,09,47,20.50
2014,09,15,09,48,20.50
2014,09,15,09,49,20.60
2014,09,15,09,50,20.60
2014,09,15,09,51,20.60
2014,09,15,09,52,20.60
2014,09,15,09,53,20.60
2014,09,15,09,54,20.60
2014,09,15,09,55,20.70
2014,09,15,09,56,20.70
2014,09,15,09,57,20.70
2014,09,15,09,58,20.70
2014,09,15,09,59,20.80
2014,09,15,10,00,20.80
2014,09,15,10,01,20.80
2014,09,15,10,02,20.90
2014,09,15,10,03,20.90
2014,09,15,10,04,21.00
2014,09,15,10,05,21.00
2014,09,15,10,06,21.10
2014,09,15,10,07,21.10
2014,09,15,10,08,21.10
2014,09,15,10,09,21.10
2014,09,15,10,10,21.10
2014,09,15,10,11,21.10
2014,09,15,10,12,21.10
2014,09,15,10,13,21.10
2014,09,15,10,14,21.20
2014,09,15,10,15,21.20
2014,09,15,10,16,21.30
2014,09,15,10,17,21.30
2014,09,15,10,18,21.30
2014,09,15,10,19,21.30
2014,09,15,10,20,21.30
2014,09,15,10,21,21.40
2014,09,15,10,22,21.40
2014,09,15,10,23,21.50
2014,09,15,10,24,21.50
2014,09,15,10,25,21.60
2014,09,15,10,26,21.60
2014,09,15,10,27,21.60
2014,09,15,10,28,21.70
2014,09,15,10,29,21.70
2014,09,15,10,30,21.70
2014,09,15,10,31,21.70
2014,09,15,10,32,21.70
2014,09,15,10,33,21.70
2014,09,15,10,34,21.80
2014,09,15,10,35,21.80
2014,09,15,10,36,21.80
2014,09,15,10,37,21.80
2014,09,15,10,38,21.80
2014,09,15,10,39,21.80
2014,09,15,10,40,21.80
2014,09,15,10,41,21.90
2014,09,15,10,42,21.90
2014,09,15,10,43,21.90
2014,09,15,10,44,22.00
2014,09,15,10,45,22.00
2014,09,15,10,46,22.00
2014,09,15,10,47,22.00
2014,09,15,10,48,22.00
2014,09,15,10,49,22.00
2014,09,15,10,50,22.10
2014,09,15,10,51,22.10
2014,09,15,10,52,22.10
2014,09,15,10,53,22.10
2014,09,15,10,54,22.00
2014,09,15,10,55,22.00
2014,09,15,10,56,22.00
2014,09,15,10,57,22.00
2014,09,15,10,58,22.00
2014,09,15,10,59,21.90
2014,09,15,11,00,21.90
2014,09,15,11,01,21.90
2014,09,15,11,02,21.80
2014,09,15,11,03,21.80
2014,09,15,11,04,21.90
2014,09,15,11,05,21.90
2014,09,15,11,06,21.90
2014,09,15,11,07,22.00
2014,09,15,11,08,22.00
2014,09,15,11,09,22.10
2014,09,15,11,10,22.10
2014,09,15,11,11,22.10
2014,09,15,11,12,22.20
2014,09,15,11,13,22.20
2014,09,15,11,14,22.30
2014,09,15,11,15,22.30
2014,09,15,11,16,22.30
2014,09,15,11,17,22.30
2014,09,15,11,18,22.30
2014,09,15,11,19,22.40
2014,09,15,11,20,22.40
2014,09,15,11,21,22.40
2014,09,15,11,22,22.40
2014,09,15,11,23,22.40
2014,09,15,11,24,22.50
2014,09,15,11,25,22.60
2014,09,15,11,26,22.60
2014,09,15,11,27,22.70
2014,09,15,11,28,22.70
2014,09,15,11,29,22.80
2014,09,15,11,30,22.80
2014,09,15,11,31,22.80
2014,09,15,11,32,22.80
2014,09,15,11,33,22.80
2014,09,15,11,34,22.80
2014,09,15,11,35,22.80
2014,09,15,11,36,22.90
2014,09,15,11,37,22.90
2014,09,15,11,38,22.90
2014,09,15,11,39,22.80
2014,09,15,11,40,22.80
2014,09,15,11,41,22.80
2014,09,15,11,42,22.80
2014,09,15,11,43,22.90
2014,09,15,11,44,22.90
2014,09,15,11,45,22.90
2014,09,15,11,46,22.90
2014,09,15,11,47,22.80
2014,09,15,11,48,22.80
2014,09,15,11,49,22.80
2014,09,15,11,50,22.80
2014,09,15,11,51,22.80
2014,09,15,11,52,22.80
2014,09,15,11,53,22.80
2014,09,15,11,54,22.80
2014,09,15,11,55,22.80
2014,09,15,11,56,22.80
2014,09,15,11,57,22.90
2014,09,15,11,58,22.90
2014,09,15,11,59,22.90
2014,09,15,12,00,22.90
2014,09,15,12,01,23.00
2014,09,15,12,02,23.00
2014,09,15,12,03,23.00
2014,09,15,12,04,23.10
2014,09,15,12,05,23.10
2014,09,15,12,06,23.10
2014,09,15,12,07,23.10
2014,09,15,12,08,23.10
2014,09,15,12,09,23.10
2014,09,15,12,10,23.20
2014,09,15,12,11,23.20
2014,09,15,12,12,23.30
2014,09,15,12,13,23.30
2014,09,15,12,14,23.30
2014,09,15,12,15,23.30
2014,09,15,12,16,23.30
2014,09,15,12,17,23.30
2014,09,15,12,18,23.40
2014,09,15,12,19,23.50
2014,09,15,12,20,23.50
2014,09,15,12,21,23.60
2014,09,15,12,22,23.60
2014,09,15,12,23,23.60
2014,09,15,12,24,23.70
2014,09,15,12,25,23.60
2014,09,15,12,26,23.60
2014,09,15,12,27,23.60
2014,09,15,12,28,23.70
2014,09,15,12,29,23.70
2014,09,15,12,30,23.70
2014,09,15,12,31,23.80
2014,09,15,12,32,23.80
2014,09,15,12,33,23.80
2014,09,15,12,34,23.70
2014,09,15,12,35,23.70
2014,09,15,12,36,23.70
2014,09,15,12,37,23.80
2014,09,15,12,38,23.80
2014,09,15,12,39,23.80
2014,09,15,12,40,23.90
2014,09,15,12,41,23.90
2014,09,15,12,42,23.90
2014,09,15,12,43,24.00
2014,09,15,12,44,24.00
2014,09,15,12,45,24.10
2014,09,15,12,46,24.10
2014,09,15,12,47,24.20
2014,09,15,12,48,24.20
2014,09,15,12,49,24.30
2014,09,15,12,50,24.30
2014,09,15,12,51,24.30
2014,09,15,12,52,24.40
2014,09,15,12,53,24.40
2014,09,15,12,54,24.40
2014,09,15,12,55,24.50
2014,09,15,12,56,24.50
2014,09,15,12,57,24.60
2014,09,15,12,58,24.70
2014,09,15,12,59,24.70
2014,09,15,13,00,24.80
2014,09,15,13,01,24.80
2014,09,15,13,02,24.80
2014,09,15,13,03,24.80
2014,09,15,13,04,24.80
2014,09,15,13,05,24.80
2014,09,15,13,06,24.80
2014,09,15,13,07,24.80
2014,09,15,13,08,24.80
2014,09,15,13,09,24.80
2014,09,15,13,10,24.80
2014,09,15,13,11,24.90
2014,09,15,13,12,24.90
2014,09,15,13,13,24.90
2014,09,15,13,14,25.00
2014,09,15,13,15,25.00
2014,09,15,13,16,25.00
2014,09,15,13,17,25.00
2014,09,15,13,18,25.00
2014,09,15,13,19,25.10
2014,09,15,13,20,25.10
2014,09,15,13,21,25.10
2014,09,15,13,22,25.00
2014,09,15,13,23,25.00
2014,09,15,13,24,25.10
2014,09,15,13,25,25.10
2014,09,15,13,26,25.10
2014,09,15,13,27,25.10
2014,09,15,13,28,25.10
2014,09,15,13,29,25.10
2014,09,15,13,30,25.10
2014,09,15,13,31,25.20
2014,09,15,13,32,25.20
2014,09,15,13,33,25.20
2014,09,15,13,34,25.20
2014,09,15,13,35,25.20
2014,09,15,13,36,25.30
2014,09,15,13,37,25.30
2014,09,15,13,38,25.30
2014,09,15,13,39,25.40
2014,09,15,13,40,25.40
2014,09,15,13,41,25.50
2014,09,15,13,42,25.40
2014,09,15,13,43,25.40
2014,09,15,13,44,25.40
2014,09,15,13,45,25.40
2014,09,15,13,46,25.50
2014,09,15,13,47,25.50
2014,09,15,13,48,25.50
2014,09,15,13,49,25.50
2014,09,15,13,50,25.50
2014,09,15,13,51,25.50
2014,09,15,13,52,25.40
2014,09,15,13,53,25.20
2014,09,15,13,54,25.00
2014,09,15,13,55,24.80
2014,09,15,13,56,24.60
2014,09,15,13,57,24.40
2014,09,15,13,58,24.20
2014,09,15,13,59,24.10
2014,09,15,14,00,23.90
2014,09,15,14,01,23.70
2014,09,15,14,02,23.50
2014,09,15,14,03,23.40
2014,09,15,14,04,23.20
2014,09,15,14,05,23.10
2014,09,15,14,06,23.00
2014,09,15,14,07,22.90
2014,09,15,14,08,22.90
2014,09,15,14,09,22.70
2014,09,15,14,10,22.60
2014,09,15,14,11,22.40
2014,09,15,14,12,22.20
2014,09,15,14,13,22.10
2014,09,15,14,14,22.00
2014,09,15,14,15,21.80
2014,09,15,14,16,21.70
2014,09,15,14,17,21.50
2014,09,15,14,18,21.50
2014,09,15,14,19,21.50
2014,09,15,14,20,21.50
2014,09,15,14,21,21.60
2014,09,15,14,22,21.60
2014,09,15,14,23,21.70
2014,09,15,14,24,21.70
2014,09,15,14,25,21.80
2014,09,15,14,26,21.80
2014,09,15,14,27,21.80
2014,09,15,14,28,21.90
2014,09,15,14,29,22.00
2014,09,15,14,30,22.10
2014,09,15,14,31,22.10
2014,09,15,14,32,22.10
2014,09,15,14,33,22.10
2014,09,15,14,34,22.10
2014,09,15,14,35,22.00
2014,09,15,14,36,22.10
2014,09,15,14,37,22.10
2014,09,15,14,38,22.10
2014,09,15,14,39,22.10
2014,09,15,14,40,22.10
2014,09,15,14,41,22.10
2014,09,15,14,42,22.00
2014,09,15,14,43,22.00
2014,09,15,14,44,21.90
2014,09,15,14,45,21.90
2014,09,15,14,46,21.80
2014,09,15,14,47,21.50
2014,09,15,14,48,21.30
2014,09,15,14,49,21.00
2014,09,15,14,50,20.70
2014,09,15,14,51,20.50
2014,09,15,14,52,20.40
2014,09,15,14,53,20.30
2014,09,15,14,54,20.30
2014,09,15,14,55,20.30
2014,09,15,14,56,20.30
2014,09,15,14,57,20.30
2014,09,15,14,58,20.30
2014,09,15,14,59,20.30
2014,09,15,15,00,20.30
2014,09,15,15,01,20.30
2014,09,15,15,02,20.30
2014,09,15,15,03,20.20
2014,09,15,15,04,20.20
2014,09,15,15,05,20.20
2014,09,15,15,06,20.20
2014,09,15,15,07,20.30
2014,09,15,15,08,20.40
2014,09,15,15,09,20.40
2014,09,15,15,10,20.40
2014,09,15,15,11,20.30
2014,09,15,15,12,20.20
2014,09,15,15,13,20.00
2014,09,15,15,14,19.80
2014,09,15,15,15,19.70
2014,09,15,15,16,19.60
2014,09,15,15,17,19.50
2014,09,15,15,18,19.30
2014,09,15,15,19,19.30
2014,09,15,15,20,19.20
2014,09,15,15,21,19.20
2014,09,15,15,22,19.20
2014,09,15,15,23,19.20
2014,09,15,15,24,19.20
2014,09,15,15,25,19.30
2014,09,15,15,26,19.40
2014,09,15,15,27,19.60
2014,09,15,15,28,19.70
2014,09,15,15,29,19.90
2014,09,15,15,30,20.10
2014,09,15,15,31,20.30
2014,09,15,15,32,20.40
2014,09,15,15,33,20.40
2014,09,15,15,34,20.30
2014,09,15,15,35,20.20
2014,09,15,15,36,20.10
2014,09,15,15,37,20.10
2014,09,15,15,38,20.00
2014,09,15,15,39,20.00
2014,09,15,15,40,19.90
2014,09,15,15,41,19.80
2014,09,15,15,42,19.80
2014,09,15,15,43,19.60
2014,09,15,15,44,19.50
2014,09,15,15,45,19.40
2014,09,15,15,46,19.30
2014,09,15,15,47,19.20
2014,09,15,15,48,19.20
2014,09,15,15,49,19.10
2014,09,15,15,50,19.10
2014,09,15,15,51,19.00
2014,09,15,15,52,19.00
2014,09,15,15,53,19.10
2014,09,15,15,54,19.10
2014,09,15,15,55,19.10
2014,09,15,15,56,19.10
2014,09,15,15,57,19.10
2014,09,15,15,58,19.10
2014,09,15,15,59,19.10
2014,09,15,16,00,19.00
2014,09,15,16,01,19.00
2014,09,15,16,02,18.90
2014,09,15,16,03,18.90
2014,09,15,16,04,18.90
2014,09,15,16,05,19.00
2014,09,15,16,06,19.00
2014,09,15,16,07,19.10
2014,09,15,16,08,19.10
2014,09,15,16,09,19.20
2014,09,15,16,10,19.20
2014,09,15,16,11,19.20
2014,09,15,16,12,19.10
2014,09,15,16,13,19.10
2014,09,15,16,14,19.10
2014,09,15,16,15,19.10
2014,09,15,16,16,19.10
2014,09,15,16,17,19.10
2014,09,15,16,18,19.10
2014,09,15,16,19,19.20
2014,09,15,16,20,19.30
2014,09,15,16,21,19.30
2014,09,15,16,22,19.30
2014,09,15,16,23,19.40
2014,09,15,16,24,19.40
2014,09,15,16,25,19.50
2014,09,15,16,26,19.50
2014,09,15,16,27,19.60
2014,09,15,16,28,19.70
2014,09,15,16,29,19.80
2014,09,15,16,30,19.80
2014,09,15,16,31,19.90
2014,09,15,16,32,20.00
2014,09,15,16,33,20.10
2014,09,15,16,34,20.10
2014,09,15,16,35,20.10
2014,09,15,16,36,20.00
2014,09,15,16,37,20.00
2014,09,15,16,38,19.90
2014,09,15,16,39,19.90
2014,09,15,16,40,19.90
2014,09,15,16,41,19.90
2014,09,15,16,42,19.90
2014,09,15,16,43,19.90
2014,09,15,16,44,19.90
2014,09,15,16,45,19.90
2014,09,15,16,46,19.90
2014,09,15,16,47,19.90
2014,09,15,16,48,19.80
2014,09,15,16,49,19.80
2014,09,15,16,50,19.80
2014,09,15,16,51,19.80
2014,09,15,16,52,19.80
2014,09,15,16,53,19.80
2014,09,15,16,54,19.80
2014,09,15,16,55,19.80
2014,09,15,16,56,19.80
2014,09,15,16,57,19.80
2014,09,15,16,58,19.80
2014,09,15,16,59,19.80
2014,09,15,17,00,19.80
2014,09,15,17,01,19.80
2014,09,15,17,02,19.80
2014,09,15,17,03,19.80
2014,09,15,17,04,19.90
2014,09,15,17,05,19.90
2014,09,15,17,06,19.90
2014,09,15,17,07,19.90
2014,09,15,17,08,19.90
2014,09,15,17,09,19.90
2014,09,15,17,10,19.90
2014,09,15,17,11,19.80
2014,09,15,17,12,19.80
2014,09,15,17,13,19.70
2014,09,15,17,14,19.70
2014,09,15,17,15,19.70
2014,09,15,17,16,19.70
2014,09,15,17,17,19.60
2014,09,15,17,18,19.70
2014,09,15,17,19,19.70
2014,09,15,17,20,19.70
2014,09,15,17,21,19.80
2014,09,15,17,22,19.80
2014,09,15,17,23,19.80
2014,09,15,17,24,19.80
2014,09,15,17,25,19.80
2014,09,15,17,26,19.80
2014,09,15,17,27,19.80
2014,09,15,17,28,19.80
2014,09,15,17,29,19.80
2014,09,15,17,30,19.90
2014,09,15,17,31,20.00
2014,09,15,17,32,20.00
2014,09,15,17,33,20.10
2014,09,15,17,34,20.20
2014,09,15,17,35,20.20
2014,09,15,17,36,20.30
2014,09,15,17,37,20.30
2014,09,15,17,38,20.40
2014,09,15,17,39,20.40
2014,09,15,17,40,20.50
2014,09,15,17,41,20.60
2014,09,15,17,42,20.70
2014,09,15,17,43,20.70
2014,09,15,17,44,20.80
2014,09,15,17,45,20.90
2014,09,15,17,46,21.00
2014,09,15,17,47,21.00
2014,09,15,17,48,21.10
2014,09,15,17,49,21.00
2014,09,15,17,50,20.90
2014,09,15,17,51,20.90
2014,09,15,17,52,20.80
2014,09,15,17,53,20.60
2014,09,15,17,54,20.50
2014,09,15,17,55,20.50
2014,09,15,17,56,20.40
2014,09,15,17,57,20.40
2014,09,15,17,58,20.40
2014,09,15,17,59,20.50
2014,09,15,18,00,20.50
2014,09,15,18,01,20.60
2014,09,15,18,02,20.60
2014,09,15,18,03,20.70
2014,09,15,18,04,20.70
2014,09,15,18,05,20.70
2014,09,15,18,06,20.70
2014,09,15,18,07,20.70
2014,09,15,18,08,20.70
2014,09,15,18,09,20.70
2014,09,15,18,10,20.70
2014,09,15,18,11,20.60
2014,09,15,18,12,20.60
2014,09,15,18,13,20.50
2014,09,15,18,14,20.50
2014,09,15,18,15,20.50
2014,09,15,18,16,20.50
2014,09,15,18,17,20.40
2014,09,15,18,18,20.40
2014,09,15,18,19,20.40
2014,09,15,18,20,20.40
2014,09,15,18,21,20.40
2014,09,15,18,22,20.30
2014,09,15,18,23,20.20
2014,09,15,18,24,20.20
2014,09,15,18,25,20.10
2014,09,15,18,26,20.00
2014,09,15,18,27,19.90
2014,09,15,18,28,19.90
2014,09,15,18,29,19.80
2014,09,15,18,30,19.80
2014,09,15,18,31,19.70
2014,09,15,18,32,19.70
2014,09,15,18,33,19.60
2014,09,15,18,34,19.60
2014,09,15,18,35,19.50
2014,09,15,18,36,19.50
2014,09,15,18,37,19.40
2014,09,15,18,38,19.40
2014,09,15,18,39,19.40
2014,09,15,18,40,19.40
2014,09,15,18,41,19.40
2014,09,15,18,42,19.30
2014,09,15,18,43,19.30
2014,09,15,18,44,19.30
2014,09,15,18,45,19.30
2014,09,15,18,46,19.30
2014,09,15,18,47,19.30
2014,09,15,18,48,19.30
2014,09,15,18,49,19.40
2014,09,15,18,50,19.40
2014,09,15,18,51,19.40
2014,09,15,18,52,19.50
2014,09,15,18,53,19.50
2014,09,15,18,54,19.60
2014,09,15,18,55,19.60
2014,09,15,18,56,19.70
2014,09,15,18,57,19.70
2014,09,15,18,58,19.70
2014,09,15,18,59,19.80
2014,09,15,19,00,19.80
2014,09,15,19,01,19.80
2014,09,15,19,02,19.80
2014,09,15,19,03,19.80
2014,09,15,19,04,19.80
2014,09,15,19,05,19.80
2014,09,15,19,06,19.80
2014,09,15,19,07,19.80
2014,09,15,19,08,19.80
2014,09,15,19,09,19.80
2014,09,15,19,10,19.70
2014,09,15,19,11,19.70
2014,09,15,19,12,19.70
2014,09,15,19,13,19.70
2014,09,15,19,14,19.70
2014,09,15,19,15,19.70
2014,09,15,19,16,19.70
2014,09,15,19,17,19.70
2014,09,15,19,18,19.70
2014,09,15,19,19,19.70
